Location: Unspecified
(0.0000°N, 0.0000°E)
Time: 03:14:38
(UTC+00:00)

CZ-3B DEB - Pass Details

Date: 21 February 2026
Orbit: 716 x 41326 km, 26.5° (Epoch: 4 March)

Event Time Altitude Azimuth Distance (km) Brightness Sun altitude
Exits shadow 02:05:21 65° 250° (WSW) 12,316 ? -60.3°
Maximum altitude 02:29:58 70° 218° (SW) 17,380 ? -54.5°
Drops below altitude 10° 13:36:52 10° 46° (NE) 3,302 ? 66.8°
Sets 13:38:30 0° 50° (NE) 3,872 ? 66.5°
